sat.trackr.live / text

‹ back to catalog

STARLINK-3999

NORAD 52704 · 2022-053BA

PAYLOAD ACTIVE UNKNOWN

§ Identity

Operator
Country
US
Launch date
2022-05-18
Launch site
AFETR
Launch vehicle
Mass (kg)
RCS (m²)

Purposes: comms

External: N2YO · Heavens-Above · Gunter

§ Orbital elements

Epoch: 2026-05-24T23:57:03.053664Z

Period
95.44 min
Inclination
53.2124°
Eccentricity
0.0000851
Mean motion
15.08828279 rev/d
Perigee alt
539.2 km
Apogee alt
540.4 km
Semi-major
6,917.9 km
B*
1.0287e-4
RAAN
151.5603°
Arg perigee
75.3445°
Mean anomaly
284.7642°
Rev number
22,283

§ Raw data

STARLINK-39991 52704U 22053BA  26144.99795201  .00001349  00000+0  10287-3 0  99962 52704  53.2124 151.5603 0000851  75.3445 284.7642 15.08828279222830

JSON: /api/v1/satellites/52704 · /tle

For live sub-satellite position, see the globe view (requires WebGL).

§ Visibility from observer

Set your observer location to see the next 7 days of passes ≥ 10°. The values pass through the URL so the page stays shareable.

No JS? Fill the form by hand. The geolocation button needs JavaScript.